Location: Ústí nad Labem
(50.6611°N, 14.0531°E)
Time: 19:32:20
(UTC+02:00)

S-56A Canister/Altair - Pass Details

Date: 30 April 2025
Orbit: 633 x 2485 km, 38.9° (Epoch: 12 May)

Event Time Altitude Azimuth Distance (km) Brightness Sun altitude
Rises 23:15:51 0° 253° (WSW) 3,349 10.9 -20.4°
Reaches altitude 10° 23:18:17 10° 242° (WSW) 2,591 10.2 -20.5°
Maximum altitude 23:23:39 31° 182° (S) 1,876 9.0 -20.9°
Enters shadow 23:23:40 31° 182° (S) 1,878 9.0 -20.9°
